Location: Dumpton Point
(51.3500°N, 1.4433°E)
Time: 16:32:20
(UTC+00:00)

STARLINK-1203 - Pass Details

Date: 09 April 2020
Orbit: 559 x 560 km, 53.0° (Epoch: 29 May)

Event Time Altitude Azimuth Distance (km) Brightness Sun altitude
Rises 18:54:11 0° 282° (WNW) 2,758 10.4 -2.8°
Reaches altitude 10° 18:56:26 10° 284° (WNW) 1,861 8.4 -3.1°
Maximum altitude 19:00:40 78° 11° (NNE) 582 3.8 -3.7°
Drops below altitude 10° 19:04:55 10° 99° (E) 1,859 5.7 -4.4°
Enters shadow 19:05:54 - 99° (E) 2,250 6.1 -4.5°
